Regional Weather Roundup
Issued by NWS State College, PA

Home | Current Version | Previous Version | Text Only | Print | Product List | Glossary On
Versions: 1 2 3 4 5 6 7 8 9 10 11 12 13 14 15 16 17 18 19 20 21 22 23 24 25 26 27 28 29 30 31 32 33 34 35 36 37 38 39 40 41 42 43 44 45 46 47 48 49 50
000
ASUS41 KCTP 241910
RWRCTP

REGIONAL WEATHER ROUNDUP
NATIONAL WEATHER SERVICE STATE COLLEGE PA
300 PM EDT THU MAY 24 2018

Note: "fair" indicates few or no clouds below 12,000 feet with no
significant weather and/or obstructions to visibility.

* = STATION THAT DOES NOT REPORT PRECIPITATION /E.G. RAIN...SNOW...ETC/
    THUNDER OR FOG.

PAZ002>004-007>009-013>016-020>023-029>032-242000-
WESTERN PENNSYLVANIA

CITY           SKY/WX    TMP DP  RH WIND       PRES   REMARKS
ERIE           FAIR      76  51  41 W8        30.19F
MEADVILLE      FAIR      78  50  37 NW7       30.21F
FRANKLIN*      FAIR      78  44  29 SW6       30.21F
NEW CASTLE     FAIR      80  49  33 CALM      30.21F
BEAVER COUNTY  SUNNY     81  50  34 S5        30.20F
BUTLER*        FAIR      78  47  33 E5        30.20F
PITTSBURGH INT FAIR      82  44  26 S5        30.19F
PITTSBURGH     FAIR      78  47  33 SE3       30.19F
INDIANA*       SUNNY     79  50  36 CALM      30.24F
LATROBE        SUNNY     79  50  36 NW7       30.20F
WASHINGTON CO* NOT AVBL
$$

PAZ004>006-010>012-017>019-024>028-033>037-041-042-045-046-049>053-242000-
CENTRAL PENNSYLVANIA

CITY           SKY/WX    TMP DP  RH WIND       PRES   REMARKS
BRADFORD       FAIR      78  38  23 NW6       30.21F
DUBOIS         FAIR      79  47  32 VRB5      30.20F
CLEARFIELD     FAIR      81  44  27 CALM      30.19F
JOHNSTOWN      FAIR      75  43  31 SW3       30.22F
ALTOONA        FAIR      81  45  28 CALM      30.21F
STATE COLLEGE  SUNNY     79  50  36 SE5       30.19S
WILLIAMSPORT   FAIR      84  43  23 NE7       30.12F
SELINSGROVE    FAIR      81  50  33 CALM      30.16F
FT INDIANTOWN  SUNNY     83  45  26 N3        30.15F
CAPITAL CITY   FAIR      84  45  25 VRB7      30.16F
HARRISBURG     FAIR      80  50  34 W9        30.15S
YORK           FAIR      81  49  32 N6        30.17F
$$

PAZ038>040-043-044-047-048-054-055-060>062-067>071-242000-
EASTERN PENNSYLVANIA

CITY           SKY/WX    TMP DP  RH WIND       PRES   REMARKS
SCRANTON       FAIR      79  48  33 W7        30.14F
MOUNT POCONO   FAIR      76  43  30 NW13      30.17F
ALLENTOWN      FAIR      84  46  26 VRB6      30.12S
QUAKERTOWN*    CLEAR     82  50  32 CALM      30.14S
READING        FAIR      83  50  31 NW5       30.13F
LANCASTER      FAIR      82  50  32 CALM      30.16S
COATESVILLE    FAIR      79  46  31 CALM      30.18S
POTTSTOWN      FAIR      80  48  32 W6        30.15F
BLUE BELL      FAIR      79  50  36 NW3       30.15S
DOYLESTOWN     FAIR      81  48  31 CALM      30.12F
WILLOW GROVE   NOT AVBL
NORTH PHILA    FAIR      83  45  26 VRB5      30.14F
PHILADELPHIA   FAIR      81  42  25 S6        30.13F
$$



USA.gov is the U.S. government's official web portal to all federal, state and local government web resources and services.